AirNav   Air Wisconsin Up To $57,000 Bonus
 
 1006 users online  

FD72 Kings Port Airport
Lake Placid, Florida, USA

GOING TO LAKE PLACID?


FAA INFORMATION EFFECTIVE 07 OCTOBER 2021

Location

FAA Identifier: FD72
Lat/Long: 27-10-58.1760N 081-23-26.2640W
27-10.969600N 081-23.437733W
27.1828267,-81.3906289
(estimated)
Elevation: 148 ft. / 45 m (estimated)
Variation: 02W (1985)
From city: 7 miles S of LAKE PLACID, FL
Time zone: UTC -4 (UTC -5 during Standard Time)
Zip code: 33852

Airport Operations

Airport use: Private use. Permission required prior to landing
Activation date: 07/1986
Control tower: no
ARTCC: MIAMI CENTER
FSS: SAINT PETERSBURG FLIGHT SERVICE STATION
Attendance: CONTINUOUS
Wind indicator: yes
Segmented circle: no

Airport Communications

WX AWOS-3 at SEF (17 nm N): 119.475 (863-655-6424)

Nearby radio navigation aids

VOR radial/distance  VOR name  Freq  Var
LBVr359/21.3LA BELLE VORTAC110.4001E
PGDr070/(35.8)PUNTA GORDA VOR110.2006W

Airport Services

Runway Information

Runway 18/36

Dimensions: 2500 x 75 ft. / 762 x 23 m
Surface: turf, in good condition
RUNWAY 18  RUNWAY 36
Traffic pattern: leftleft
Obstructions: 4 ft. fence, 20 ft. from runway4 ft. fence, 20 ft. from runway

Airport Ownership and Management from official FAA records

Ownership: Privately-owned
Owner: RICHARD AND DALE DUTTON, ET AL
228 PARK LAND DRIVE
LAKE PLACID, FL 33852
Manager: EDWARD AND MARY ANN FLEAGLE
212 PARK LAND DRIVE
LAKE PLACID, FL 33852
Phone 910-358-7235

Airport Operational Statistics

Aircraft based on the field: 6
Single engine airplanes: 6
    

Additional Remarks

FOR CD CTC MIAMI ARTCC AT 305-716-1731.

Instrument Procedures

There are no published instrument procedures at FD72.

Some nearby airports with instrument procedures:

KSEF - Sebring Regional Airport (17 nm N)
X06 - Arcadia Municipal Airport (24 nm W)
KAVO - Avon Park Executive Airport (26 nm N)
X14 - La Belle Municipal Airport (27 nm S)
KOBE - Okeechobee County Airport (29 nm E)
 
Loc | Ops | Rwys | IFR | FBO | Links
Com | Nav | Svcs | Stats | Notes


 
Area around FD72 (Kings Port Airport)
 
Road maps at: MapQuest Bing Google
 
Aerial photo
No photo
 
Sectional chart

 
Airport distance calculator
Flying to Kings Port Airport? Find the distance to fly.

From to FD72

Sunrise and sunset
Times for 19-Oct-2021
 Local
(UTC-4)
 Zulu
(UTC)
Morning civil twilight07:0511:05
Sunrise07:2911:29
Sunset18:5322:53
Evening civil twilight19:1623:16

Current date and time
Zulu (UTC)  20-Oct-2021 02:01:07
Local (UTC-4)  19-Oct-2021 22:01:07
 
METAR
KSEF 
17nm N 
200155Z AUTO 05005KT 10SM CLR 19/17 A3018 RMK AO2 T01930168
KAGR 
28nm N 
200058Z AUTO 06006KT 10SM CLR 20/15 A3016 RMK AO2 SLP214 T02010154 $
KOBE 
29nm E 
200155Z AUTO 03004KT 10SM FEW055 20/18 A3017 RMK AO2
K2IS 
32nm SE 
200155Z AUTO 07007KT 10SM CLR 22/18 A3016 RMK AO2 T02240176
TAF
KPGD 
36nm SW 
191720Z 1918/2018 09010KT P6SM SCT060 SCT250 FM200100 07005KT P6SM FEW250 FM201500 09010KT P6SM FEW040
KRSW 
44nm SW 
191720Z 1918/2018 09010KT P6SM SCT060 SCT250 FM200100 07005KT P6SM FEW250 FM201500 09010KT P6SM FEW040
KFMY 
44nm SW 
191720Z 1918/2018 09010KT P6SM SCT060 SCT250 FM200100 07005KT P6SM FEW250 FM201500 10009KT P6SM FEW040
NOTAMs
Click for the latest NOTAMs
NOTAMs are issued by the DoD/FAA and will open in a separate window not controlled by AirNav.

 

 
 

Would you like to see your business listed on this page?

 If your business provides an interesting product or service to pilots, flight crews, aircraft, or users of the Kings Port Airport, you should consider listing it here.  To start the listing process, click on the button below
 
Add a business
 

Other Pages about Kings Port Airport

Update a link
 
Copyright © AirNav, LLC. All rights reserved. Privacy Policy  Contact